Hourly Data Report for October 03, 2017

All times are specified in Local Standard Time (LST). Add 1 hour to adjust for Daylight Saving Time where and when it is observed.

FREDERICTON
NEW BRUNSWICK

45°52'08.000" N
66°32'14.000" W
20.70 m
8101505
71700
YFC

Download Data

Hourly Data (October 2017)
Hourly Data Report for October 3, 2017
Temp Definition
°C
Dew Point Temp Definition
°C
Rel Hum Definition
%
Wind Dir Definition
10's deg

Wind Spd Definition
km/h
Visibility Definition
km
Stn Press Definition
kPa
Hmdx Definition


Wind Chill Definition


Weather Definition


TIME
00:00 Legend Double Dagger -0.1 -1.1 93   0 16.1 103.30     LegendNANA
01:00 Legend Double Dagger -0.1 -1.0 94 23 4 16.1 103.34   -1 LegendNANA
02:00 Legend Double Dagger -2.0 -2.3 98 22 4 16.1 103.38   -3 LegendNANA
03:00 Legend Double Dagger -2.2 -2.6 97 20 5 16.1 103.38   -4 LegendNANA
04:00 Legend Double Dagger -2.4 -2.8 97 LegendMM 4 16.1 103.43   -4 LegendNANA
05:00 Legend Double Dagger -2.9 -3.2 98 22 8 16.1 103.47   -6 LegendNANA
06:00 Legend Double Dagger -3.3 -3.6 98 20 11 16.1 103.50   -8 LegendNANA
07:00 Legend Double Dagger -3.1 -3.5 97 21 9 16.1 103.55   -7 LegendNANA
08:00 Legend Double Dagger -0.2 -1.5 91 21 5 16.1 103.58   -2 LegendNANA
09:00 Legend Double Dagger 4.1 0.8 79 LegendMM 4 16.1 103.58     LegendNANA
10:00 Legend Double Dagger 7.9 2.1 67 20 8 16.1 103.54     LegendNANA
11:00 Legend Double Dagger 11.7 2.6 54 22 8 16.1 103.47     LegendNANA
12:00 Legend Double Dagger 14.7 1.5 41 22 15 16.1 103.40     LegendNANA
13:00 Legend Double Dagger 15.1 1.0 38 27 9 16.1 103.32     LegendNANA
14:00 Legend Double Dagger 15.4 0.2 35 21 11 16.1 103.22     LegendNANA
15:00 Legend Double Dagger 16.0 0.3 34 18 17 16.1 103.07     LegendNANA
16:00 Legend Double Dagger 17.3 0.3 31 22 24 16.1 102.95     LegendNANA
17:00 Legend Double Dagger 16.5 1.6 36 22 15 16.1 102.89     LegendNANA
18:00 Legend Double Dagger 14.8 6.2 56 18 17 16.1 102.83     LegendNANA
19:00 Legend Double Dagger 13.4 6.8 64 19 17 16.1 102.81     LegendNANA
20:00 Legend Double Dagger 12.4 7.1 70 21 18 16.1 102.78     LegendNANA
21:00 Legend Double Dagger 11.5 6.9 73 21 17 16.1 102.71     LegendNANA
22:00 Legend Double Dagger 11.0 7.0 76 19 17 16.1 102.66     LegendNANA
23:00 Legend Double Dagger 9.6 6.7 82 18 11 16.1 102.60     LegendNANA

Notes on Data Quality.

Legend

  • E = Estimated
  • M = Missing
  • NA = Not Available
  • ‡ = Partner data that is not subject to review by the National Climate Archives
Date modified: